Skip Page Navigation
NASA JPL Caltech
NASA Logo - Jet Propulsion Laboratory + View the NASA Portal
+ Center for Near-Earth Object Studies
JPL Home Earth Solar System Stars & Galaxies Technology
JPL Solar System Dynamics
BODIES ORBITS EPHEMERIDES TOOLS PHYSICAL DATA DISCOVERY FAQ SITE MAP
IMPORTANT: The SSD Announcement email list is now available. Major changes are coming in the near future, including possible hostname and/or URL changes. To be notified of such changes, subscribe to this email list.

Please visit this page for more details.


JPL Small-Body Database Browser
Search: [ help ]  
20268 Racollier (1998 FC28)
Classification: Main-belt Asteroid          SPK-ID: 2020268
Ephemeris | Orbit Diagram | Orbital Elements | Mission Design | Physical Parameters | Discovery Circumstances | Close-Approach Data ]

[ show orbit diagram ]
Orbital Elements at Epoch 2459000.5 (2020-May-31.0) TDB
Reference: JPL 29 (heliocentric ecliptic J2000)
 Element Value Uncertainty (1-sigma)   Units 
e .1292604190042093 3.4513e-08  
a 2.37478815180861 8.29e-09 au
q 2.067822040259597 8.1478e-08 au
i 6.254442808580671 3.9438e-06 deg
node 182.9544796344065 2.841e-05 deg
peri 198.1271941054701 3.1304e-05 deg
M 165.9710609116212 1.2391e-05 deg
tp 2458384.237691553239
(2018-Sep-22.73769155)
4.5926e-05 TDB
period 1336.705506503754
3.66
6.9993e-06
1.916e-08
d
yr
n .2693188576305076 1.4102e-09 deg/d
Q 2.681754263357623 9.3616e-09 au
  Orbit Determination Parameters
   # obs. used (total)      1567  
   data-arc span      9497 days (26.00 yr)  
   first obs. used      1994-02-02  
   last obs. used      2020-02-03  
   planetary ephem.      DE431  
   SB-pert. ephem.      SB431-N16  
   condition code      0  
   norm. resid. RMS      .51015  
   source      ORB  
   producer      Otto Matic  
   solution date      2020-Feb-22 23:03:48  

Additional Information
 Earth MOID = 1.07105 au 
 Jupiter MOID = 2.77498 au 
 T_jup = 3.523 
[ show covariance matrix ]

Ephemeris | Orbit Diagram | Orbital Elements | Mission Design | Physical Parameters | Discovery Circumstances | Close-Approach Data ]

Physical Parameter Table
Parameter Symbol Value Units Sigma Reference Notes
absolute magnitude H 14.7   n/a MPO452457  

20268 Racollier           Discovered 1998 Mar. 20 by the Lincoln Laboratory Near-Earth Asteroid Research Team at Socorro.
Rachael Theresa Collier (b. 1986) is a finalist in the 2004 Intel Science Talent Search, a science competition for high school seniors, for her environmental science project. She attends the Mediapolis High School, Mediapolis, Iowa.
NOTE: some special characters may not display properly (any characters within {} are an attempt to place the proper accent above a character)
Reference: 20040415/MPCPages.arcLast Updated: 2004-04-20

[ show close-approach data ]
Alternate Designations
 1998 FC28 = 1996 TQ14 
Ephemeris | Orbit Diagram | Orbital Elements | Mission Design | Physical Parameters | Discovery Circumstances | Close-Approach Data ]
ABOUT SSD CREDITS/AWARDS PRIVACY/COPYRIGHT GLOSSARY LINKS
FirstGov 2020-Apr-09 15:30 UT
(server date/time)  
NASA Home Page
Site Manager:   Ryan S. Park
Webmaster  Alan B. Chamberlin